Location: Knowlton
(51.2333°N, 1.2667°E)
Time: 09:20:37
(UTC+00:00)

Cosmos 2315 Rocket - Pass Details

Date: 18 April 2021
Orbit: 967 x 1001 km, 82.9° (Epoch: 05 May)

Event Time Altitude Azimuth Distance (km) Brightness Sun altitude
Exits shadow 23:10:31 60° 121° (ESE) 1,128 4.0 -26.9°
Maximum altitude 23:11:07 63° 94° (E) 1,103 4.1 -26.9°
Drops below altitude 10° 23:17:23 10° 15° (NNE) 2,777 7.2 -27.1°
Sets 23:19:57 0° 12° (NNE) 3,734 8.1 -27.2°
